User: anonymous   Login
Location: Arezzo
(43.4170°N, 11.8830°E)
Time: 22:13:11
(UTC+02:00)
Language:

STARLINK-2646 - Orbit

View from above orbital plane
View from above orbital plane
View from above satellite
View from above satellite

Ground track
Ground track

The orbit data is extracted from the following two-line orbital elements,

1 48642U 21044E   21271.55317074 -.00000004  00000-0  18663-4 0  9993
2 48642  53.0545 208.1456 0001767  64.3114 295.8057 15.06399027 19068
Epoch (UTC): 28 September 2021 13:16:33
Eccentricity: 0.0001767
inclination: 53.0545°
perigee height: 546 km
apogee height: 548 km
right ascension of ascending node: 208.1456°
argument of perigee: 64.3114°
revolutions per day: 15.06399027
mean anomaly at epoch: 295.8057°
orbit number at epoch: 1906

The dashed part of the orbit path shows where the satellite is in the earth's shadow,  

DLR